[[{"header":{"parameterUnit":"m.s-1","parameterCategory":2,"la1":30.2991,"la2":30.254,"lo1":-89.0895,"lo2":-89.0444,"dy":0.0017,"dx":0.0017,"nx":28,"ny":28,"refTime":"2025-06-08T09:00:00:Z","depth":"0","parameterNumber":2,"parameterNumberName":"U-component_of_CURRENTS"},"data":[0,0,0,0,0,0,0,0,0,0,0,0,0,0,0,0,0,0,0,0,0,0,0,0,0,0,0,0,0,0,0,0,0,0,0,0,0,0,0,0,0,0,0,0,0,0,0,0,0,0,0,0,0,0,0,0,0,0,0.3505,0.3507,0,0.3613,0.3614,0.3614,0.3477,0.3473,0.347,0.3466,0.3473,0.3477,0.348,0,0,0,0,0,0,0,0,0,0,0,0,0,0.3229,0.3234,0.3505,0.3507,0.351,0.3613,0.3614,0.3614,0.3478,0.3473,0.3469,0.3464,0.3472,0.3476,0.3481,0,0,0,0,0,0,0,0,0,0,0,0,0,0.3333,0.3235,0.3504,0.3463,0.3461,0.3613,0.3614,0.3614,0.3479,0.3473,0.3467,0.3462,0.347,0.3476,0.3481,0.3634,0,0,0.3499,0.3501,0,0,0,0,0,0,0,0,0.3327,0.3342,0.3467,0.3466,0.3465,0.3536,0.352,0.362,0.3481,0.346,0.3466,0.3459,0.3497,0.35,0.3518,0.3634,0.3634,0.3499,0.3503,0.3505,0.3507,0,0,0,0,0,0,0,0.332,0.3337,0.3535,0.347,0.3469,0.3457,0.3463,0.3538,0.3499,0.3461,0.3454,0.3488,0.3493,0.3513,0.3517,0.3634,0.3499,0.3504,0.3508,0.351,0.3829,0.3834,0,0,0,0,0,0,0.3336,0.3331,0.3532,0.354,0.3394,0.3468,0.3474,0.3509,0.35,0.3497,0.3493,0.3481,0.3506,0.351,0.3517,0.3678,0.3505,0.3511,0.3514,0.3824,0.383,0.3836,0,0,0,0,0,0,0.333,0.3353,0.3528,0.3446,0.3469,0.3479,0.352,0.3515,0.3532,0.3527,0.3518,0.3514,0.3501,0.3509,0.357,0.3677,0.3513,0.3518,0.3818,0.3826,0.3833,0.4014,0,0,0,0,0,0,0.3321,0.335,0.3401,0.3448,0.3475,0.3652,0.3527,0.3522,0.3568,0.3553,0.3546,0.3539,0.3497,0.3562,0.3576,0.3682,0.3523,0.3812,0.3822,0.383,0.4001,0.4027,0.4048,0,0,0,0,0,0.3311,0.3438,0.3403,0.3429,0.3538,0.3658,0.3672,0.3648,0.3575,0.363,0.3584,0.3539,0.3632,0.3571,0.3586,0.3696,0.3807,0.3819,0.383,0.3991,0.4022,0.4047,0,0,0,0,0,0,0.3379,0.3438,0.34,0.3543,0.3598,0.3639,0.3707,0.3681,0.3694,0.3658,0.3605,0.3602,0.3701,0.3686,0.362,0.3817,0.3716,0.3731,0.3833,0.3862,0.3885,0.3864,0.3528,0,0,0,0,0,0.3413,0.3489,0.3544,0.3655,0.3685,0.369,0.3739,0.3722,0.374,0.3737,0.373,0.3729,0.3774,0.3796,0.3835,0.3956,0.3947,0.4038,0.4062,0.4081,0.4077,0.4166,0.4196,0.3873,0.3873,0.3873,0,0,0.3474,0.3515,0.3562,0.367,0.3693,0.3755,0.3702,0.3794,0.3827,0.3746,0.3799,0.3824,0.3825,0.3935,0.3982,0.3926,0.4178,0.4096,0.4112,0.4096,0.4181,0.4212,0.424,0.3881,0.3879,0.3878,0,0,0.3611,0.3659,0.374,0.3785,0.3849,0.3855,0.3886,0.3937,0.394,0.4023,0.3962,0.4045,0.4111,0.4138,0.4154,0.4347,0.4302,0.4372,0.4474,0.4563,0.4589,0.4612,0.4667,0.4694,0.4379,0.4379,0.438,0,0.367,0.3767,0.3796,0.3865,0.3903,0.3893,0.3964,0.3998,0.4059,0.4089,0.4055,0.4191,0.4209,0.4331,0.4384,0.4404,0.4418,0.4361,0.4591,0.4613,0.4633,0.4684,0.4711,0.4389,0.4388,0.4387,0.4386,0,0.3825,0.3898,0.3964,0.4001,0.4058,0.4146,0.4164,0.4219,0.4219,0.4245,0.4384,0.4432,0.4496,0.4556,0.4522,0.4699,0.4653,0.4612,0.451,0.4676,0.472,0.4745,0.4404,0.44,0.4397,0.4395,0,0,0.395,0.4048,0.406,0.4057,0.4129,0.4171,0.4256,0.4335,0.435,0.4472,0.4546,0.4697,0.472,0.4743,0.4763,0.4854,0.5037,0.4796,0.4796,0.4835,0.5213,0.5107,0.5122,0.5028,0.5033,0.5037,0.5194,0,0.4043,0.4159,0.4197,0.4268,0.431,0.4321,0.4374,0.4431,0.4482,0.4557,0.4678,0.4755,0.4789,0.4825,0.4946,0.5011,0.5105,0.4996,0.5059,0.506,0.4932,0.5149,0.4951,0.5068,0.5217,0.5221,0.5224,0,0.4156,0.4205,0.4307,0.4324,0.4342,0.4373,0.4407,0.4464,0.4573,0.4619,0.4763,0.4817,0.5019,0.4981,0.5237,0.5161,0.5202,0.5247,0.5253,0.5096,0.5,0.4924,0.5105,0.4976,0.526,0.5257,0.5255,0,0.4163,0.4263,0.4325,0.4344,0.4389,0.441,0.4419,0.449,0.4525,0.4657,0.4707,0.4929,0.5025,0.5182,0.5323,0.528,0.5549,0.5492,0.5438,0.5429,0.5243,0.5208,0.5284,0.5636,0.5636,0.5635,0.5635,0,0.4242,0.4272,0.4314,0.4339,0.4351,0.438,0.4403,0.4444,0.4526,0.4574,0.473,0.4826,0.5074,0.525,0.5366,0.5512,0.5604,0.5498,0.5486,0.5302,0.5274,0.5129,0.5034,0.5641,0.564,0.5639,0.5638,0,0.4248,0.4302,0.4336,0.4367,0.4361,0.4354,0.4359,0.4366,0.4455,0.4531,0.458,0.4796,0.5025,0.5249,0.5488,0.5534,0.5533,0.5677,0.5434,0.5391,0.5181,0.5101,0.4994,0.4862,0.5662,0.5661,0.566,0,0.4269,0.4298,0.4319,0.4305,0.4315,0.4302,0.428,0.433,0.4341,0.4507,0.4541,0.4775,0.491,0.5255,0.5416,0.5618,0.5461,0.5475,0.5359,0.5185,0.509,0.492,0.4804,0.5203,0.5198,0.5194,0.5191,0,0.4267,0.4274,0.4288,0.4262,0.4231,0.4194,0.4171,0.4174,0.4242,0.4319,0.4429,0.4551,0.4859,0.4996,0.5238,0.5332,0.5207,0.5393,0.5298,0.4818,0.4554,0.4412,0.5068,0.5156,0.516,0.5162,0.5164,0.5166,0.4228,0.4212,0.4211,0.417,0.4137,0.4059,0.3997,0.4005,0.4015,0.409,0.4273,0.4391,0.4602,0.4929,0.4995,0.4956,0.4952,0.4843,0.4791,0.4661,0.4429,0.4991,0.5002,0.5004,0.5006,0.5008,0.501,0,0.4123,0.411,0.4094,0.4019,0.3939,0.3954,0.389,0.3823,0.3797,0.3933,0.403,0.416,0.4292,0.4453,0.4533,0.4399,0.4253,0.4293,0.4027,0.3967,0.4563,0.4437,0.422,0.422,0.422,0.4221,0.4221,0.4221,0.4063,0.4001,0.3985,0.3824,0.3773,0.3619,0.3566,0.3522,0.3569,0.3564,0.3612,0.3739,0.3955,0.4147,0.4069,0.3971,0.3683,0.3532,0.3546,0.3977,0.4024,0.4069,0.3935,0.3616,0.3615,0.2829,0.2823,0.2818]},{"header":{"parameterUnit":"m.s-1","parameterCategory":2,"la1":30.2991,"la2":30.254,"lo1":-89.0895,"lo2":-89.0444,"dy":0.0017,"dx":0.0017,"nx":28,"ny":28,"refTime":"2025-06-08T09:00:00:Z","depth":"0","parameterNumber":3,"parameterNumberName":"V-component_of_CURRENTS"},"data":[0,0,0,0,0,0,0,0,0,0,0,0,0,0,0,0,0,0,0,0,0,0,0,0,0,0,0,0,0,0,0,0,0,0,0,0,0,0,0,0,0,0,0,0,0,0,0,0,0,0,0,0,0,0,0,0,0,0,0.0476,0.0477,0,0.0497,0.0496,0.0496,0.0314,0.0309,0.0305,0.03,0.0158,0.0158,0.0159,0,0,0,0,0,0,0,0,0,0,0,0,0,0.0313,0.0316,0.0476,0.0477,0.0478,0.0497,0.0496,0.0496,0.0314,0.0309,0.0303,0.0298,0.0158,0.0158,0.0159,0,0,0,0,0,0,0,0,0,0,0,0,0,0.0358,0.0317,0.0476,0.0394,0.0387,0.0497,0.0496,0.0496,0.0315,0.0309,0.0302,0.0296,0.0157,0.0158,0.0159,0.0297,0,0,0.016,0.0161,0,0,0,0,0,0,0,0,0.0355,0.0363,0.0405,0.04,0.0393,0.0401,0.0387,0.0424,0.0317,0.0336,0.03,0.0292,0.0233,0.0227,0.0239,0.0291,0.0285,0.0161,0.0161,0.0161,0.0161,0,0,0,0,0,0,0,0.0352,0.0361,0.0478,0.0407,0.0399,0.0368,0.0366,0.0393,0.0314,0.0334,0.0322,0.0337,0.0226,0.024,0.0234,0.0283,0.016,0.0161,0.0161,0.0162,0.0365,0.037,0,0,0,0,0,0,0.0369,0.036,0.0477,0.0479,0.0364,0.0377,0.0374,0.04,0.0317,0.0301,0.0343,0.0328,0.0242,0.0234,0.0229,0.0344,0.0161,0.0162,0.0162,0.036,0.0367,0.0372,0,0,0,0,0,0,0.0366,0.038,0.0477,0.0423,0.0433,0.0387,0.0418,0.0404,0.0416,0.0327,0.0304,0.0367,0.0236,0.0228,0.0251,0.0337,0.0162,0.0162,0.0354,0.0362,0.0369,0.0602,0,0,0,0,0,0,0.0362,0.0379,0.0427,0.0425,0.0437,0.0585,0.0424,0.041,0.0438,0.0419,0.0343,0.0321,0.023,0.0251,0.0252,0.0335,0.0163,0.0348,0.0358,0.0367,0.0588,0.0616,0.0641,0,0,0,0,0,0.0356,0.0472,0.0429,0.0444,0.0497,0.0591,0.0598,0.0534,0.0446,0.0507,0.0416,0.0323,0.031,0.0257,0.0256,0.0341,0.0343,0.0355,0.0366,0.0576,0.0611,0.064,0,0,0,0,0,0,0.0464,0.0465,0.0417,0.0534,0.057,0.0563,0.0628,0.0576,0.0561,0.0524,0.0398,0.0377,0.0422,0.0375,0.0319,0.043,0.0312,0.0324,0.0472,0.0504,0.053,0.0552,0.0163,0,0,0,0,0,0.0506,0.0571,0.0571,0.0678,0.0695,0.0664,0.0697,0.0658,0.0639,0.0624,0.057,0.0512,0.0484,0.0481,0.0461,0.0553,0.048,0.0606,0.0633,0.0655,0.0677,0.0635,0.0658,0.0409,0.0409,0.0409,0,0,0.059,0.0596,0.064,0.0703,0.0713,0.0763,0.0667,0.0749,0.0779,0.062,0.0665,0.0613,0.0528,0.0589,0.0609,0.0553,0.0697,0.067,0.0689,0.0698,0.0649,0.0672,0.0693,0.0417,0.0416,0.0414,0,0,0.0761,0.0784,0.0861,0.089,0.0922,0.0902,0.0933,0.0946,0.0939,0.1002,0.0862,0.087,0.0869,0.0815,0.078,0.0965,0.0832,0.0967,0.1129,0.1089,0.1108,0.1124,0.1088,0.1099,0.0987,0.0988,0.0988,0,0.0849,0.0923,0.0918,0.0978,0.1007,0.0961,0.1034,0.1055,0.1074,0.1095,0.1044,0.1037,0.0972,0.0999,0.1045,0.1025,0.0973,0.1005,0.112,0.1134,0.1146,0.1105,0.1113,0.1001,0.0999,0.0998,0.0997,0,0.1024,0.1083,0.1154,0.1168,0.1219,0.1306,0.1296,0.1352,0.1332,0.1329,0.1398,0.1339,0.1317,0.1322,0.1233,0.1306,0.1234,0.1147,0.103,0.1184,0.1133,0.1137,0.1019,0.1014,0.101,0.1007,0,0,0.1187,0.1253,0.1264,0.128,0.1315,0.1371,0.1451,0.151,0.1544,0.1601,0.1669,0.1664,0.1633,0.1595,0.1516,0.1508,0.1553,0.1386,0.1378,0.1337,0.147,0.1396,0.1392,0.1473,0.1474,0.1476,0.1408,0,0.1302,0.1417,0.1426,0.1536,0.1584,0.1574,0.1654,0.17,0.172,0.1791,0.1783,0.1811,0.1733,0.1729,0.1723,0.1598,0.1572,0.1579,0.134,0.1333,0.1235,0.1398,0.1263,0.1189,0.1411,0.1411,0.1412,0,0.1418,0.1472,0.159,0.1668,0.1693,0.1751,0.1823,0.1896,0.1966,0.1995,0.204,0.2006,0.2048,0.1929,0.1845,0.1851,0.1685,0.1582,0.1574,0.1424,0.1268,0.1067,0.1186,0.093,0.1417,0.1416,0.1416,0,0.1457,0.1575,0.166,0.1689,0.1781,0.1837,0.1886,0.1956,0.2035,0.211,0.2171,0.2192,0.2207,0.2077,0.1909,0.1862,0.1784,0.1667,0.1442,0.1434,0.1233,0.1205,0.1059,0.1556,0.1557,0.1557,0.1557,0,0.1538,0.16,0.168,0.1724,0.1834,0.1888,0.2007,0.2054,0.2167,0.2277,0.2273,0.2355,0.2237,0.2181,0.1989,0.1783,0.1838,0.1512,0.1428,0.1316,0.1297,0.099,0.0869,0.1554,0.1555,0.1555,0.1556,0,0.1546,0.1607,0.1701,0.1812,0.1848,0.192,0.2066,0.2154,0.2253,0.2392,0.2432,0.2495,0.2436,0.2288,0.2076,0.1874,0.1503,0.154,0.1436,0.1343,0.0893,0.0791,0.0579,0.0478,0.1306,0.1304,0.1302,0,0.1552,0.1605,0.1732,0.1786,0.1832,0.1946,0.2035,0.217,0.2274,0.2474,0.2555,0.2567,0.2582,0.2317,0.1973,0.1656,0.1406,0.1263,0.1143,0.0898,0.0721,0.0657,0.0584,0.0971,0.0966,0.0963,0.096,0,0.1551,0.1599,0.1669,0.1783,0.1874,0.2004,0.2142,0.2249,0.2432,0.2568,0.2735,0.2773,0.2537,0.221,0.1783,0.1516,0.1067,0.1179,0.0935,0.0488,0.0394,0.0245,0.0995,0.0929,0.0932,0.0935,0.0936,0.0938,0.1525,0.157,0.1666,0.1772,0.1888,0.2047,0.2163,0.2332,0.2529,0.277,0.2824,0.29,0.2381,0.1812,0.1469,0.0713,0.0815,0.0426,0.0337,0.0307,0.0175,0.0886,0.0718,0.072,0.0721,0.0723,0.0724,0,0.1489,0.1555,0.1649,0.1793,0.1921,0.2002,0.2228,0.2376,0.2597,0.2804,0.2957,0.2668,0.202,0.1397,0.0422,-0.0054,-0.0199,-0.0309,-0.0464,-0.0485,0.0123,0.0071,-0.0258,-0.0258,-0.0258,-0.0258,-0.0257,-0.0257,0.1475,0.1544,0.1606,0.1784,0.1899,0.2103,0.2242,0.2466,0.2657,0.2841,0.285,0.2848,0.2233,0.0551,-0.0578,-0.0797,-0.1074,-0.1163,-0.1201,-0.0855,-0.0794,-0.0736,-0.0813,-0.1323,-0.1324,-0.1817,-0.1823,-0.1827]}],[{"header":{"parameterUnit":"m.s-1","parameterCategory":2,"la1":30.2991,"la2":30.254,"lo1":-89.0895,"lo2":-89.0444,"dy":0.0017,"dx":0.0017,"nx":28,"ny":28,"refTime":"2025-06-08T09:00:00:Z","depth":"2","parameterNumber":2,"parameterNumberName":"U-component_of_CURRENTS"},"data":[0,0,0,0,0,0,0,0,0,0,0,0,0,0,0,0,0,0,0,0,0,0,0,0,0,0,0,0,0,0,0,0,0,0,0,0,0,0,0,0,0,0,0,0,0,0,0,0,0,0,0,0,0,0,0,0,0,0,0.3161,0.3161,0,0.3214,0.3214,0.3215,0.3188,0.3186,0.3185,0.3183,0.3251,0.3254,0.3257,0,0,0,0,0,0,0,0,0,0,0,0,0,0.2985,0.2989,0.3161,0.3162,0.3162,0.3213,0.3214,0.3215,0.3188,0.3186,0.3184,0.3182,0.325,0.3253,0.3257,0,0,0,0,0,0,0,0,0,0,0,0,0,0.3054,0.299,0.3161,0.3153,0.3153,0.3213,0.3214,0.3215,0.3188,0.3186,0.3184,0.3181,0.3248,0.3253,0.3258,0.3334,0,0,0.3273,0.3275,0,0,0,0,0,0,0,0,0.305,0.306,0.3154,0.3154,0.3154,0.319,0.3177,0.3255,0.3189,0.3177,0.3183,0.318,0.3233,0.3239,0.3256,0.3337,0.334,0.3273,0.3276,0.3278,0.3279,0,0,0,0,0,0,0,0.3045,0.3057,0.3183,0.3155,0.3155,0.3129,0.3137,0.3191,0.3218,0.3178,0.3175,0.3179,0.3232,0.3251,0.3257,0.3341,0.3273,0.3277,0.328,0.3282,0.3426,0.3427,0,0,0,0,0,0,0.3042,0.3054,0.3182,0.3185,0.3093,0.3135,0.3143,0.3182,0.3217,0.322,0.3181,0.3178,0.3244,0.3251,0.3259,0.3359,0.3278,0.3283,0.3285,0.3425,0.3426,0.3427,0,0,0,0,0,0,0.3039,0.3054,0.318,0.3116,0.313,0.314,0.3184,0.3184,0.3216,0.322,0.3222,0.3213,0.3242,0.3252,0.3281,0.3361,0.3285,0.3289,0.3424,0.3426,0.3427,0.3555,0,0,0,0,0,0,0.3034,0.3054,0.3095,0.3118,0.3134,0.3236,0.3186,0.3187,0.3221,0.3217,0.3249,0.3251,0.3241,0.3273,0.3286,0.3366,0.3293,0.3423,0.3425,0.3426,0.3549,0.356,0.357,0,0,0,0,0,0.3028,0.3112,0.3097,0.3113,0.3187,0.3238,0.3246,0.3243,0.3225,0.326,0.324,0.3251,0.3293,0.3278,0.3292,0.3376,0.3422,0.3424,0.3426,0.3545,0.3558,0.3569,0,0,0,0,0,0,0.3085,0.3117,0.3102,0.3198,0.3215,0.3233,0.3278,0.3267,0.3285,0.3277,0.3266,0.3269,0.3324,0.3321,0.3305,0.3413,0.3361,0.3366,0.3446,0.3459,0.3469,0.3418,0.3297,0,0,0,0,0,0.3109,0.3154,0.3181,0.3248,0.3272,0.3275,0.33,0.3292,0.3303,0.331,0.3333,0.3338,0.3347,0.3374,0.3388,0.3466,0.3429,0.3522,0.3532,0.3541,0.3504,0.3548,0.3559,0.3434,0.3434,0.3434,0,0,0.3148,0.3166,0.3196,0.3257,0.3276,0.3292,0.3287,0.3337,0.3335,0.3318,0.336,0.3384,0.3368,0.3429,0.3457,0.3441,0.3552,0.3544,0.3552,0.3509,0.3551,0.3564,0.3575,0.3436,0.3435,0.3435,0,0,0.314,0.3271,0.3237,0.3296,0.3317,0.3344,0.3362,0.3403,0.3418,0.3477,0.3427,0.3492,0.3553,0.3544,0.3544,0.3625,0.3596,0.3639,0.3675,0.3721,0.3732,0.3741,0.3691,0.3694,0.3658,0.3658,0.3658,0,0.3139,0.3135,0.3245,0.3238,0.3254,0.3363,0.3316,0.3401,0.3438,0.3468,0.3508,0.3582,0.3612,0.3617,0.3633,0.3659,0.3621,0.3642,0.3737,0.3745,0.3753,0.3699,0.3701,0.3664,0.3664,0.3663,0.3662,0,0.3059,0.31,0.3127,0.3129,0.3186,0.3219,0.3312,0.342,0.3498,0.3557,0.3644,0.3691,0.3732,0.3773,0.3734,0.3782,0.3715,0.3743,0.3714,0.3774,0.3712,0.3712,0.3673,0.3671,0.3669,0.3668,0,0,0.29,0.3008,0.3009,0.3019,0.3128,0.3179,0.3267,0.3348,0.3458,0.3586,0.3639,0.3735,0.3812,0.3805,0.3798,0.3838,0.3888,0.3804,0.3804,0.3762,0.39,0.3758,0.3743,0.3934,0.3935,0.3936,0.383,0,0.274,0.2688,0.277,0.2797,0.2811,0.3007,0.3106,0.3253,0.3424,0.3576,0.3676,0.3767,0.3806,0.3847,0.3898,0.3921,0.3894,0.3907,0.3835,0.3831,0.3709,0.3743,0.3551,0.3431,0.3829,0.3829,0.3829,0,0.2582,0.2572,0.2503,0.2672,0.2697,0.2768,0.3,0.3095,0.3377,0.3515,0.3662,0.3762,0.3854,0.3867,0.3948,0.3953,0.3891,0.389,0.3888,0.37,0.369,0.3438,0.3416,0.3829,0.3829,0.3829,0.3829,0,0.2404,0.2425,0.2355,0.2416,0.2606,0.2666,0.2793,0.3087,0.3216,0.3467,0.3599,0.3757,0.3824,0.3874,0.3915,0.3947,0.3928,0.4003,0.3765,0.3752,0.354,0.3506,0.393,0.393,0.393,0.3931,0.3931,0,0.2249,0.2246,0.2312,0.234,0.2394,0.2558,0.2706,0.2927,0.3169,0.3329,0.3539,0.364,0.3829,0.3866,0.3887,0.3831,0.3929,0.3734,0.3725,0.3573,0.3545,0.3855,0.3847,0.3927,0.3927,0.3928,0.3929,0,0.2147,0.2154,0.2167,0.2286,0.234,0.2415,0.2661,0.282,0.3057,0.3241,0.3301,0.3563,0.3675,0.3749,0.3803,0.3772,0.3752,0.3626,0.3381,0.3345,0.3542,0.3543,0.3464,0.3458,0.3453,0.3449,0.3446,0,0.2057,0.2045,0.214,0.218,0.2248,0.2372,0.2502,0.2754,0.2904,0.3192,0.325,0.3386,0.349,0.3513,0.3505,0.3467,0.352,0.3156,0.3206,0.3499,0.35,0.3508,0.3515,0.2962,0.2955,0.295,0.2945,0,0.1934,0.2002,0.2042,0.2123,0.2216,0.2319,0.2494,0.2571,0.2848,0.2987,0.3163,0.3247,0.3291,0.3234,0.3119,0.3073,0.3214,0.3035,0.3425,0.3114,0.302,0.3023,0.3048,0.2893,0.2899,0.2902,0.2905,0.2907,0.1863,0.1898,0.1975,0.2064,0.2173,0.2261,0.2309,0.2467,0.2605,0.2758,0.2896,0.2942,0.297,0.2803,0.2701,0.265,0.2857,0.2758,0.278,0.2806,0.2771,0.2675,0.2471,0.2474,0.2476,0.2478,0.248,0,0.1738,0.1832,0.1909,0.1994,0.2062,0.2189,0.2307,0.2302,0.2367,0.2516,0.2586,0.2367,0.2329,0.2395,0.2278,0.2239,0.2263,0.2138,0.2191,0.2242,0.2288,0.2231,0.1785,0.1782,0.178,0.1778,0,0,0.1666,0.1702,0.1762,0.1814,0.1934,0.1976,0.2014,0.2027,0.2098,0.205,0.2085,0.2187,0.2346,0.203,0.1972,0.1894,0.2055,0.1818,0.2381,0.2498,0.2541,0.2651,0.262,0,0,0,0,0]},{"header":{"parameterUnit":"m.s-1","parameterCategory":2,"la1":30.2991,"la2":30.254,"lo1":-89.0895,"lo2":-89.0444,"dy":0.0017,"dx":0.0017,"nx":28,"ny":28,"refTime":"2025-06-08T09:00:00:Z","depth":"2","parameterNumber":3,"parameterNumberName":"V-component_of_CURRENTS"},"data":[0,0,0,0,0,0,0,0,0,0,0,0,0,0,0,0,0,0,0,0,0,0,0,0,0,0,0,0,0,0,0,0,0,0,0,0,0,0,0,0,0,0,0,0,0,0,0,0,0,0,0,0,0,0,0,0,0,0,-0.0029,-0.003,0,-0.0062,-0.0062,-0.0061,-0.0066,-0.0067,-0.0068,-0.0069,-0.0168,-0.0169,-0.0171,0,0,0,0,0,0,0,0,0,0,0,0,0,-0.0015,-0.0014,-0.0029,-0.003,-0.0032,-0.0063,-0.0061,-0.006,-0.0065,-0.0067,-0.0068,-0.0069,-0.0167,-0.0169,-0.0171,0,0,0,0,0,0,0,0,0,0,0,0,0,-0.0017,-0.0013,-0.0028,-0.005,-0.0053,-0.0063,-0.0061,-0.006,-0.0065,-0.0067,-0.0068,-0.007,-0.0167,-0.0169,-0.0171,-0.0154,0,0,-0.0179,-0.018,0,0,0,0,0,0,0,0,-0.0017,-0.0016,-0.0045,-0.0048,-0.0052,-0.0075,-0.0094,-0.01,-0.0065,-0.0044,-0.0069,-0.0071,-0.0152,-0.0155,-0.0135,-0.0158,-0.0162,-0.0179,-0.0181,-0.0182,-0.0182,0,0,0,0,0,0,0,-0.0017,-0.0015,-0.0026,-0.0047,-0.0052,-0.0075,-0.0075,-0.0094,-0.0078,-0.0046,-0.005,-0.0078,-0.0152,-0.0133,-0.0138,-0.0164,-0.0179,-0.0181,-0.0183,-0.0184,-0.0222,-0.0221,0,0,0,0,0,0,-0.0039,-0.0014,-0.0026,-0.0029,-0.0056,-0.0075,-0.0074,-0.0053,-0.0076,-0.0085,-0.0077,-0.0079,-0.0128,-0.0135,-0.0142,-0.0125,-0.0182,-0.0184,-0.0185,-0.0222,-0.0222,-0.0221,0,0,0,0,0,0,-0.0037,-0.0037,-0.0025,-0.0038,-0.004,-0.0074,-0.0051,-0.0054,-0.0016,-0.0102,-0.0109,-0.0037,-0.0129,-0.0139,-0.0145,-0.013,-0.0185,-0.0187,-0.0223,-0.0222,-0.0221,-0.0092,0,0,0,0,0,0,-0.0035,-0.0035,-0.0011,-0.0037,-0.0041,-0.0013,-0.0051,-0.0054,-0.004,-0.0041,-0.007,-0.0082,-0.0131,-0.0141,-0.0147,-0.0134,-0.0189,-0.0223,-0.0222,-0.0222,-0.0097,-0.0087,-0.0078,0,0,0,0,0,-0.0034,0.001,-0.0008,-0.0011,-0.001,-0.0013,-0.0012,-0.0036,-0.0036,-0.0005,-0.0033,-0.008,-0.0142,-0.0141,-0.0149,-0.0137,-0.0224,-0.0223,-0.0222,-0.0101,-0.0089,-0.0079,0,0,0,0,0,0,0.0047,0.0011,-0.0009,0.0028,0.0008,-0.0019,0.0001,-0.0009,0.0003,-0.0011,-0.0056,-0.0069,-0.0075,-0.012,-0.0118,-0.015,-0.0197,-0.0198,-0.0103,-0.0092,-0.0083,-0.0135,-0.0191,0,0,0,0,0,0.0067,0.0078,0.0044,0.0068,0.007,0.0047,0.0047,0.0019,0.0005,0.0012,-0.0005,-0.0045,-0.0077,-0.0093,-0.0129,-0.0128,-0.0186,-0.0134,-0.0125,-0.0116,-0.0167,-0.016,-0.0154,-0.0218,-0.0218,-0.0218,0,0,0.0103,0.0076,0.0088,0.0081,0.0074,0.0081,0.0051,0.0046,0.0043,-0.0006,0.0023,-0.0004,-0.0069,-0.0078,-0.0086,-0.0112,-0.0134,-0.0115,-0.0107,-0.0164,-0.0158,-0.0152,-0.0146,-0.0217,-0.0217,-0.0217,0,0,0.0103,0.0166,0.0134,0.016,0.0116,0.0114,0.0123,0.0111,0.0107,0.0134,0.0069,0.007,0.0056,-0.0002,-0.003,0.0013,-0.008,-0.0017,-0.0014,-0.0002,0.0003,0.0007,-0.0074,-0.0079,-0.0016,-0.0015,-0.0015,0,0.0113,0.0101,0.013,0.0124,0.0125,0.0142,0.0117,0.0152,0.0134,0.0136,0.0157,0.011,0.0099,0.0023,0.0031,0.0037,-0.0026,-0.0038,0.0012,0.0015,0.0017,-0.0068,-0.0074,-0.0009,-0.001,-0.001,-0.0011,0,0.0065,0.0099,0.0112,0.0105,0.013,0.0134,0.0154,0.022,0.025,0.0246,0.0224,0.0192,0.0171,0.0157,0.0115,0.0075,0.0001,0.0036,-0.0008,0.0032,-0.0061,-0.007,0.0,-0.0002,-0.0004,-0.0006,0,0,-0.0038,0.0035,0.0044,0.0084,0.0115,0.0153,0.0201,0.0222,0.0323,0.0287,0.0315,0.0259,0.0245,0.0201,0.0125,0.0091,0.0093,0.0051,0.0049,-0.0021,0.0019,-0.0058,-0.0076,0.0132,0.0132,0.0131,-0.0056,0,-0.012,-0.011,-0.0089,-0.0011,0.0036,0.0126,0.0208,0.0264,0.0348,0.0432,0.0324,0.0355,0.0254,0.027,0.0208,0.0094,0.0073,0.0132,-0.0022,-0.003,-0.009,-0.0085,-0.0031,-0.0196,-0.0065,-0.0067,-0.0068,0,-0.0186,-0.0166,-0.0151,0.0016,0.0039,0.0101,0.0301,0.0353,0.0469,0.0545,0.0508,0.047,0.0317,0.033,0.0093,0.0117,0.0084,0.0005,-0.0,-0.0138,-0.0122,-0.0213,-0.0218,-0.0084,-0.0083,-0.0081,-0.008,0,-0.0213,-0.0164,-0.015,-0.0092,0.0065,0.0122,0.0208,0.0385,0.0485,0.0599,0.0696,0.0523,0.0476,0.032,0.01,0.0139,-0.0154,-0.0063,-0.0185,-0.0194,-0.0218,-0.0228,-0.0111,-0.0111,-0.0111,-0.011,-0.0109,0,-0.0243,-0.0181,-0.012,-0.0058,0.0061,0.0143,0.0316,0.0466,0.0608,0.073,0.0714,0.0734,0.0493,0.0287,0.0099,-0.0176,-0.0134,-0.0232,-0.0241,-0.0176,-0.0179,-0.0133,-0.0133,-0.0117,-0.0116,-0.0114,-0.0113,0,-0.0196,-0.0181,-0.0093,0.0018,0.0075,0.0182,0.0389,0.0562,0.0697,0.084,0.0861,0.0856,0.0627,0.0301,0.0052,-0.0129,-0.0379,-0.0431,-0.0418,-0.0421,-0.042,-0.0411,-0.0558,-0.0562,-0.0565,-0.0568,-0.0571,0,-0.0163,-0.0129,-0.0023,0.0055,0.0112,0.0274,0.043,0.061,0.0772,0.0901,0.0949,0.0817,0.074,0.0217,-0.0101,-0.0486,-0.0462,-0.0625,-0.0479,-0.047,-0.0462,-0.0448,-0.0435,-0.0474,-0.0475,-0.0476,-0.0477,0,-0.009,-0.0067,-0.0001,0.0138,0.0279,0.0453,0.0645,0.078,0.0966,0.1083,0.1156,0.1078,0.0667,0.03,-0.0214,-0.0436,-0.0588,-0.0654,-0.0636,-0.0365,-0.0403,-0.0392,-0.0379,-0.0488,-0.0487,-0.0486,-0.0485,-0.0485,-0.0027,0.0038,0.0113,0.0259,0.0409,0.0611,0.078,0.0963,0.117,0.1322,0.1209,0.1122,0.0719,0.0106,-0.0294,-0.063,-0.0589,-0.0674,-0.0664,-0.0654,-0.0607,-0.0647,-0.0776,-0.0777,-0.0777,-0.0778,-0.0778,0,0.0071,0.014,0.0251,0.0423,0.0593,0.0668,0.0932,0.1103,0.1326,0.1378,0.1382,0.0973,0.0577,0.0165,-0.0314,-0.0645,-0.0603,-0.0738,-0.0599,-0.059,-0.0581,-0.0523,-0.0674,-0.0674,-0.0674,-0.0674,0,0,0.0127,0.0252,0.0299,0.0558,0.0692,0.095,0.1108,0.1326,0.1439,0.1465,0.1409,0.1182,0.0687,0.0344,-0.0122,-0.0362,-0.0376,-0.0407,-0.0465,-0.0238,-0.0223,-0.0538,-0.0439,0,0,0,0,0]}],[{"header":{"parameterUnit":"m.s-1","parameterCategory":2,"la1":30.2991,"la2":30.254,"lo1":-89.0895,"lo2":-89.0444,"dy":0.0017,"dx":0.0017,"nx":28,"ny":28,"refTime":"2025-06-08T09:00:00:Z","depth":"4","parameterNumber":2,"parameterNumberName":"U-component_of_CURRENTS"},"data":[0,0,0,0,0,0,0,0,0,0,0,0,0,0,0,0,0,0,0,0,0,0,0,0,0,0,0,0,0,0,0,0,0,0,0,0,0,0,0,0,0,0,0,0,0,0,0,0,0,0,0,0,0,0,0,0,0,0,0.0701,0.0703,0,0.1005,0.101,0.1015,0.1195,0.1194,0.1193,0.1192,0.1366,0.1372,0.1377,0,0,0,0,0,0,0,0,0,0,0,0,0,0.0591,0.0592,0.0701,0.0703,0.0705,0.1004,0.101,0.1016,0.1195,0.1194,0.1192,0.1191,0.1365,0.1371,0.1378,0,0,0,0,0,0,0,0,0,0,0,0,0,0.0759,0.0592,0.07,0.0816,0.0828,0.1003,0.1011,0.1018,0.1195,0.1194,0.1192,0.1191,0.1362,0.137,0.1379,0.146,0,0,0.1404,0.1408,0,0,0,0,0,0,0,0,0.0749,0.0765,0.0797,0.0808,0.0821,0.1044,0.1035,0.1153,0.1196,0.1076,0.1192,0.119,0.1235,0.1254,0.1344,0.1468,0.1476,0.1405,0.141,0.1414,0.1416,0,0,0,0,0,0,0,0.0736,0.0754,0.0841,0.0799,0.0814,0.0959,0.0981,0.1062,0.1172,0.1086,0.1095,0.1099,0.1243,0.1335,0.1348,0.1478,0.1405,0.1412,0.1417,0.1421,0.1732,0.1735,0,0,0,0,0,0,0.0645,0.0742,0.0831,0.0848,0.0759,0.096,0.0985,0.099,0.1175,0.1197,0.11,0.1106,0.1322,0.1338,0.1354,0.1417,0.1414,0.1421,0.1426,0.1729,0.1733,0.1736,0,0,0,0,0,0,0.0642,0.065,0.0818,0.0787,0.0816,0.0959,0.0966,0.0996,0.1129,0.1183,0.1207,0.1202,0.1321,0.1343,0.1471,0.1426,0.1425,0.1433,0.1725,0.173,0.1734,0.1569,0,0,0,0,0,0,0.0638,0.0648,0.0696,0.078,0.0813,0.092,0.0966,0.1002,0.112,0.1134,0.1277,0.129,0.1322,0.1459,0.148,0.1437,0.1439,0.1721,0.1727,0.1733,0.157,0.1568,0.1565,0,0,0,0,0,0.0633,0.0635,0.0696,0.071,0.0848,0.0919,0.0955,0.1065,0.1126,0.1186,0.13,0.1288,0.1511,0.147,0.1493,0.1451,0.1718,0.1725,0.1732,0.1571,0.1568,0.1565,0,0,0,0,0,0,0.0612,0.0655,0.0723,0.0745,0.0837,0.0942,0.099,0.1097,0.1251,0.1273,0.1352,0.1374,0.1473,0.1524,0.1477,0.1574,0.1604,0.1617,0.1474,0.1472,0.147,0.1442,0.1446,0,0,0,0,0,0.0627,0.0644,0.0723,0.0754,0.0774,0.0914,0.0984,0.1069,0.1173,0.1246,0.1355,0.1457,0.1523,0.1546,0.1648,0.1702,0.1735,0.1695,0.1692,0.1689,0.1693,0.1731,0.1728,0.176,0.176,0.176,0,0,0.0621,0.0653,0.0667,0.0754,0.0822,0.0868,0.0956,0.1039,0.1106,0.1233,0.1379,0.1482,0.1557,0.1619,0.166,0.1641,0.1698,0.1698,0.1692,0.1699,0.1737,0.1733,0.1729,0.1765,0.1764,0.1764,0,0,0.0595,0.0639,0.0656,0.0721,0.082,0.0874,0.0901,0.1051,0.1136,0.1265,0.1378,0.1456,0.159,0.1618,0.1637,0.1693,0.1716,0.1743,0.1652,0.1687,0.1681,0.1678,0.1681,0.1679,0.1696,0.1696,0.1695,0,0.0616,0.0643,0.0682,0.0723,0.0769,0.0861,0.0914,0.0989,0.1193,0.1261,0.1273,0.1513,0.155,0.1604,0.1605,0.1665,0.1719,0.1626,0.1671,0.1668,0.1667,0.1672,0.1672,0.1689,0.1689,0.169,0.1691,0,0.0608,0.0663,0.065,0.0719,0.0778,0.0821,0.089,0.0998,0.1077,0.1164,0.1297,0.1383,0.1504,0.1511,0.1546,0.1586,0.1638,0.1682,0.1643,0.1651,0.166,0.1661,0.1678,0.1681,0.1683,0.1685,0,0,0.0569,0.0642,0.0652,0.0709,0.0793,0.083,0.0884,0.0974,0.1043,0.1153,0.1244,0.1294,0.1381,0.1419,0.1501,0.1496,0.1476,0.1575,0.158,0.1516,0.1563,0.1518,0.1516,0.1546,0.1547,0.1547,0.1556,0,0.058,0.0641,0.0682,0.0747,0.0777,0.0862,0.0908,0.1006,0.1071,0.1178,0.1207,0.1331,0.1324,0.1411,0.1386,0.1512,0.1486,0.147,0.1623,0.1627,0.1533,0.1518,0.1549,0.1558,0.1558,0.1559,0.1559,0,0.0578,0.0623,0.0691,0.0789,0.0809,0.0862,0.0967,0.1035,0.1136,0.1203,0.1269,0.1359,0.1389,0.1396,0.1449,0.1463,0.1495,0.1537,0.1539,0.156,0.1586,0.1571,0.1563,0.1563,0.1563,0.1563,0.1562,0,0.0534,0.0629,0.0681,0.0718,0.0826,0.0892,0.0953,0.1062,0.1131,0.1261,0.1325,0.1383,0.1446,0.1474,0.1514,0.1517,0.1581,0.1583,0.1556,0.1553,0.1657,0.1662,0.161,0.161,0.161,0.161,0.161,0,0.0517,0.0563,0.0675,0.0709,0.079,0.0883,0.0982,0.1067,0.1186,0.1255,0.135,0.1416,0.1484,0.1529,0.1535,0.1535,0.1576,0.1537,0.1553,0.159,0.1588,0.1655,0.166,0.161,0.161,0.161,0.161,0,0.0457,0.053,0.06,0.0729,0.0774,0.0837,0.0988,0.1053,0.1185,0.1283,0.1341,0.1453,0.1514,0.1558,0.1625,0.1567,0.1588,0.159,0.1612,0.1632,0.1522,0.152,0.1523,0.1521,0.152,0.1519,0.1518,0,0.0434,0.0461,0.0594,0.0644,0.071,0.0819,0.0892,0.1039,0.1105,0.1287,0.1317,0.1452,0.151,0.1524,0.1577,0.1585,0.1587,0.1576,0.1534,0.1498,0.1514,0.1513,0.1513,0.1516,0.1516,0.1515,0.1515,0,0.0382,0.0431,0.0482,0.0586,0.0674,0.0759,0.0875,0.092,0.1085,0.1201,0.1302,0.1378,0.1446,0.148,0.1528,0.1525,0.1563,0.1562,0.1563,0.1524,0.149,0.1507,0.1508,0.151,0.1511,0.1512,0.1512,0,0.034,0.0353,0.043,0.0518,0.0617,0.0693,0.0763,0.0866,0.0956,0.1159,0.1179,0.1318,0.1423,0.1451,0.1474,0.1491,0.1463,0.1418,0.1426,0.1432,0.1403,0.1346,0.1325,0,0,0,0,0,0.0306,0.0309,0.0366,0.0466,0.0561,0.0626,0.0748,0.0819,0.0972,0.1018,0.1109,0.1182,0.1273,0.133,0.1328,0.1414,0.1448,0.1406,0.1394,0.1486,0.1491,0.1469,0,0,0,0,0,0,0.0276,0.031,0.0331,0.0411,0.0469,0.0568,0.0644,0.0742,0.0782,0.0938,0.0984,0.1116,0.1197,0.1255,0.1302,0.1322,0.1296,0.1491,0.1488,0.1483,0.1488,0.1492,0.1471,0,0,0,0,0]},{"header":{"parameterUnit":"m.s-1","parameterCategory":2,"la1":30.2991,"la2":30.254,"lo1":-89.0895,"lo2":-89.0444,"dy":0.0017,"dx":0.0017,"nx":28,"ny":28,"refTime":"2025-06-08T09:00:00:Z","depth":"4","parameterNumber":3,"parameterNumberName":"V-component_of_CURRENTS"},"data":[0,0,0,0,0,0,0,0,0,0,0,0,0,0,0,0,0,0,0,0,0,0,0,0,0,0,0,0,0,0,0,0,0,0,0,0,0,0,0,0,0,0,0,0,0,0,0,0,0,0,0,0,0,0,0,0,0,0,-0.0165,-0.0167,0,-0.0306,-0.0308,-0.031,-0.0253,-0.0249,-0.0245,-0.0242,-0.0271,-0.0275,-0.0279,0,0,0,0,0,0,0,0,0,0,0,0,0,0.0005,0.0002,-0.0165,-0.0167,-0.0168,-0.0306,-0.0308,-0.0311,-0.0253,-0.0249,-0.0245,-0.024,-0.0269,-0.0274,-0.0279,0,0,0,0,0,0,0,0,0,0,0,0,0,-0.0099,0.0001,-0.0165,-0.0153,-0.0154,-0.0306,-0.0309,-0.0311,-0.0254,-0.0249,-0.0243,-0.0238,-0.0268,-0.0274,-0.028,-0.0429,0,0,-0.0299,-0.0302,0,0,0,0,0,0,0,0,-0.0093,-0.0106,-0.0154,-0.0155,-0.0155,-0.0253,-0.0259,-0.0344,-0.0256,-0.022,-0.0242,-0.0236,-0.0256,-0.0263,-0.0309,-0.0431,-0.0432,-0.03,-0.0304,-0.0306,-0.0308,0,0,0,0,0,0,0,-0.0086,-0.01,-0.0225,-0.0156,-0.0156,-0.0192,-0.02,-0.0276,-0.0268,-0.0223,-0.0218,-0.023,-0.0255,-0.0303,-0.0309,-0.0432,-0.03,-0.0305,-0.0309,-0.0312,-0.0568,-0.0571,0,0,0,0,0,0,-0.0061,-0.0094,-0.022,-0.0229,-0.0106,-0.0199,-0.0208,-0.023,-0.027,-0.027,-0.0234,-0.0227,-0.0295,-0.0301,-0.0309,-0.0372,-0.0306,-0.0312,-0.0316,-0.0565,-0.0569,-0.0572,0,0,0,0,0,0,-0.0057,-0.0071,-0.0214,-0.016,-0.018,-0.0206,-0.0233,-0.0236,-0.0277,-0.0279,-0.0277,-0.0269,-0.0291,-0.03,-0.0348,-0.0376,-0.0315,-0.0321,-0.0561,-0.0566,-0.057,-0.0572,0,0,0,0,0,0,-0.0052,-0.0069,-0.0114,-0.0159,-0.0182,-0.0297,-0.0238,-0.0242,-0.0291,-0.0282,-0.031,-0.0307,-0.0287,-0.0338,-0.0354,-0.0383,-0.0326,-0.0558,-0.0563,-0.0569,-0.0568,-0.0576,-0.0583,0,0,0,0,0,-0.0045,-0.0095,-0.0115,-0.0132,-0.023,-0.03,-0.0317,-0.0318,-0.0298,-0.0333,-0.0327,-0.0306,-0.0385,-0.0347,-0.0364,-0.0396,-0.0555,-0.0562,-0.0568,-0.0565,-0.0574,-0.0583,0,0,0,0,0,0,-0.0063,-0.0096,-0.0117,-0.0183,-0.0241,-0.0287,-0.0329,-0.0345,-0.0384,-0.0377,-0.0354,-0.0354,-0.0404,-0.0426,-0.0383,-0.0491,-0.0467,-0.0477,-0.0458,-0.0468,-0.0475,-0.0409,-0.0331,0,0,0,0,0,-0.0091,-0.0124,-0.0177,-0.024,-0.0263,-0.0314,-0.0355,-0.0372,-0.0398,-0.0411,-0.0431,-0.0451,-0.0462,-0.0476,-0.0513,-0.0595,-0.0584,-0.0628,-0.0636,-0.0641,-0.0605,-0.0647,-0.0653,-0.0594,-0.0594,-0.0594,0,0,-0.0114,-0.0144,-0.0164,-0.0246,-0.0287,-0.0292,-0.0324,-0.0398,-0.0394,-0.0415,-0.0441,-0.0493,-0.0492,-0.0545,-0.0572,-0.0555,-0.0656,-0.065,-0.0654,-0.0613,-0.0654,-0.0659,-0.0664,-0.0599,-0.0598,-0.0597,0,0,-0.0119,-0.0205,-0.0201,-0.0245,-0.0316,-0.034,-0.0359,-0.0439,-0.0464,-0.0526,-0.0515,-0.0582,-0.0633,-0.0633,-0.0626,-0.072,-0.0697,-0.0751,-0.0729,-0.0773,-0.0776,-0.0779,-0.0768,-0.077,-0.075,-0.075,-0.075,0,-0.0139,-0.0151,-0.0224,-0.0221,-0.0242,-0.0338,-0.033,-0.038,-0.0471,-0.0496,-0.0519,-0.0615,-0.0654,-0.0654,-0.0676,-0.0729,-0.0728,-0.0683,-0.0776,-0.0778,-0.0781,-0.077,-0.0771,-0.0751,-0.0751,-0.0751,-0.0751,0,-0.0101,-0.0133,-0.0144,-0.0141,-0.0185,-0.0229,-0.0276,-0.0352,-0.041,-0.0448,-0.0532,-0.062,-0.0648,-0.0711,-0.0708,-0.0759,-0.0744,-0.0778,-0.0734,-0.0785,-0.0772,-0.0774,-0.0752,-0.0752,-0.0752,-0.0752,0,0,-0.0066,-0.0099,-0.01,-0.0103,-0.0159,-0.0191,-0.0206,-0.0249,-0.0261,-0.0392,-0.0407,-0.0504,-0.0588,-0.0591,-0.0662,-0.0727,-0.0776,-0.0757,-0.0759,-0.0711,-0.0826,-0.079,-0.0788,-0.0824,-0.0825,-0.0825,-0.0806,0,-0.0008,0.0019,-0.0006,0.0006,0.0003,-0.0082,-0.0076,-0.0144,-0.0222,-0.0282,-0.0397,-0.0452,-0.052,-0.0583,-0.0643,-0.075,-0.0781,-0.0774,-0.0813,-0.0812,-0.0746,-0.0789,-0.0827,-0.0807,-0.0807,-0.0807,-0.0807,0,0.0051,0.0059,0.0093,0.0058,0.0054,0.0062,0.0007,-0.0013,-0.0097,-0.0168,-0.0245,-0.0337,-0.043,-0.0518,-0.064,-0.0629,-0.0703,-0.0792,-0.0794,-0.0748,-0.0779,-0.0752,-0.081,-0.0809,-0.0809,-0.0809,-0.0809,0,0.0098,0.0113,0.0138,0.0129,0.0104,0.0098,0.0084,0.0016,-0.0016,-0.0108,-0.0158,-0.0254,-0.0338,-0.0443,-0.061,-0.0627,-0.0752,-0.0795,-0.081,-0.0807,-0.0837,-0.0835,-0.0859,-0.0859,-0.0859,-0.0859,-0.0859,0,0.014,0.0152,0.0161,0.0164,0.0189,0.0149,0.0146,0.0102,0.0045,0.0021,-0.0092,-0.0153,-0.0336,-0.0438,-0.0562,-0.0671,-0.0694,-0.0784,-0.0804,-0.0842,-0.0841,-0.0837,-0.0835,-0.0858,-0.0859,-0.0859,-0.0859,0,0.0155,0.0163,0.0185,0.0195,0.0199,0.0209,0.0191,0.0179,0.0123,0.0082,0.0051,-0.0078,-0.021,-0.0365,-0.0555,-0.061,-0.0737,-0.0767,-0.0749,-0.0773,-0.0761,-0.076,-0.0755,-0.0754,-0.0752,-0.0752,-0.0751,0,0.0165,0.018,0.0212,0.0234,0.0239,0.0251,0.0254,0.0215,0.02,0.0121,0.0106,-0.0027,-0.0124,-0.0313,-0.0491,-0.066,-0.0706,-0.0723,-0.0779,-0.0732,-0.0753,-0.0754,-0.0754,-0.0749,-0.0749,-0.0748,-0.0748,0,0.0188,0.0197,0.0217,0.0266,0.0288,0.0305,0.0308,0.0309,0.0262,0.0219,0.015,0.0026,-0.0105,-0.0286,-0.0416,-0.0556,-0.0693,-0.0712,-0.0716,-0.0769,-0.0725,-0.0747,-0.0749,-0.0744,-0.0745,-0.0745,-0.0745,0,0.0205,0.0223,0.0254,0.029,0.0327,0.0349,0.0345,0.0333,0.0316,0.0242,0.0221,0.0058,-0.0046,-0.0231,-0.0362,-0.0482,-0.0523,-0.0549,-0.0562,-0.0568,-0.0542,-0.046,-0.0397,0,0,0,0,0,0.0223,0.0236,0.0277,0.0313,0.0351,0.0366,0.0378,0.0367,0.0336,0.0307,0.0267,0.0141,-0.0059,-0.0163,-0.0274,-0.0357,-0.0551,-0.0488,-0.0589,-0.0723,-0.0727,-0.0728,0,0,0,0,0,0,0.0228,0.0263,0.0275,0.0329,0.0356,0.0388,0.0397,0.0376,0.0354,0.0312,0.0202,0.0139,-0.0067,0.0006,-0.0269,-0.0311,-0.0381,-0.0594,-0.0595,-0.072,-0.0724,-0.0728,-0.073,0,0,0,0,0]}]]